NADEZHDA 6

Satellite information

Favourite Embed

Satellite Type and Status

PAYLOADIN ORBIT

Key statistics

Satellite NADEZHDA 6 at a glance.

Uptime

9195

Days in orbit

Revolutions

≈ 14.7

Per day

Orbit

SSO

Sun Synchronous Orbit

Inclination

97.8

Latest

Satellite identification and parameters

Extended collection of information and parameters for NADEZHDA 6.

Object identification

Identified? True

Debris? False

Object name: NADEZHDA 6

International designator: 2000-033A

Object number (NORAD): 26384

Object ID (CCSDS): 26384

Country: COMMONWEALTH OF INDEPENDENT STATES (CIS)

Current information (Y/N): Y

RCS size: LARGE

Orbital parameters

Period: 97.917 minutes

Inclination: 97.8065 deg

SMA: 7037.174 km

Apoapsis: 667.954 km

Periapsis: 650.123 km

RAAN: 224.5152 deg

Eccentricy: 0.0012669

Argument of periapsis: 197.2319 deg

Mean anomaly: 162.846 deg

Mean motion: 14.70636509 rev/day

Mean motion (dot): 0.00001396 rev/day2

B* drag term: 0.00023688442 1/REarth

Two-line elements (TLE)

Creation date: Aug. 31, 2025, 2:26 a.m.

Reference frame: TEME

Reference center: EARTH

Epoch: Aug. 30, 2025, 9:59 p.m. UTC

TLE line 0: 0 NADEZHDA 6

TLE line 1: 1 26384U 00033A 25242.91633857 .00001396 00000-0 23688-3 0 9995

TLE line 2: 2 26384 97.8065 224.5152 0012669 197.2319 162.8460 14.70636509345513

Live tracking on map

Real-time ground track for satellite NADEZHDA 6.

In-orbit conjunctions

There are no conjunctions computed for NADEZHDA 6, at the moment. Check back to stay up to date, as we update our databases every day.

Go to all conjunctions

Associated space launch

Civilian navigation satellite equivalent to the purely military Parus

NADEZHDA 6 was lifted into orbit during the mission ‘Kosmos-3M | Nadezhda 9’, on board a Kosmos-3M space rocket.

The launch took place on June 28, 2000, 10:37 a.m. from 132/1 (132L).

For more information about the launch, click the button.

Launch to space Kosmos-3M | Nadezhda 9
Kosmos-3M | Nadezhda 9

Agency: N/A

Status: Launch Successful

Launch date: June 28, 2000, 10:37 a.m. UTC

Rocket: Kosmos-3M

Launch pad: 132/1 (132L)

Location: Plesetsk Cosmodrome, Russian Federation

...

Latest news about this satellite

There are no fresh news available about this satellite. Check back as we update our databases every day.


Newsletter sign-up

Weekly statistics, charts and insights to help you stay on top of the space industry.